2020-058A (46232 NORAD) Tracking and Keplerian Element Data

This shows tracking and keplerian element data for the satellite.

Feedback or suggestion? Click here.




ElementValue
Catalog46232
Name2020-058A
Epoch Orbit1524
Epoch Day336.23477336
Epoch Year2020
RAAN23.676
Inclination97.4898
Eccentricity0.0013366
Argument of Perigee277.1865
Mean Anonmoly122.932
Mean Motion15.23538377
Decay Rate8.21E-06
L11 46232U 20058A 20336.23477336 .00000821 00000-0 37356-4 0 9990
L22 46232 97.4898 23.6760 0013366 277.1865 122.9320 15.23538377 15248

Live tracking and technical data element details for 2020-058A (NORAD 46232). 2020-058A can be tracked NOW for your location showing map with azimuth and elevation plus other details from your city location.

Track the satellite on the map from your city or location and see movement details for azimuth, elevation, latitude, longitude, range, height, and movement on the map or in text.







IsCatalogInMostPopularTable: catalog: 46232, numindb: 17
Update: records affected: 1



GetName: 46232 2020-058A

Hit Count: updated at: Wed, 02 Dec 2020 06:34:54 GMT